Погода в Табунщиково

Россия / Ростовская область     47°48′11″N   40°16′48″E
темп.,
°C
ветер,
м/с
пор.,
м/с
влажн.,
%
обл.,
%
осадки,
мм/ч
давл.,
гПа
погр.,
м
13 апреля, вт
вт1300:00+12всв1188100 0.8 102236
03:00+11св2385100 0.8 102177
06:00+11вюв3881100 0.0 1021297
09:00+12юв4681100 0.0 1022462
12:00+13юв468387 0.1 1022677
15:00+14ююв457547 0.1 1022773
18:00+14юз3374100 0.0 1021470
21:00+11зюз2487100 0.3 1021197
14 апреля, ср
ср1400:00+10зсз2391100 0.5 102078
03:00+11сз1188100 0.5 101914
06:00+10зсз1193100 0.9 101824
09:00+11сз228899 1.3 1019203
12:00+16зсз125998 0.0 10181145
15:00+17юз1349100 0.4 10161224
18:00+14з2367100 0.7 1016184
21:00+13зсз2270100 1.0 101661
15 апреля, чт
чт1500:00+11з2481100 0.0 101589
03:00+10з2485100 0.0 1015101
06:00+10з3483100 0.0 1015130
09:00+14з346512 0.0 1016501
12:00+17зюз33450 0.0 10151243
15:00+18зюз44384 0.0 10151697
18:00+17зюз234719 0.0 1014916
21:00+13з4766100 0.1 1015349
16 апреля, пт
пт1600:00+12зюз36725 0.1 1015310
03:00+9зюз258557 0.1 1015160
06:00+9зюз2494100 0.0 1016162
09:00+12юз237132 0.0 1016564
12:00+16юз2248100 0.0 10151152
15:00+13зюз7764100 0.1 1016635
18:00+10з3378100 1.0 1017364
21:00+9зюз2384100 2.9 1017519
17 апреля, сб
сб1700:00+9зюз4585100 0.0 1018466
03:00+8зюз4685100 0.0 1018410
06:00+7з488280 0.0 1018281
09:00+10зюз4566100 0.0 1020529
12:00+13юз445030 0.4 10201603
15:00+15зюз434154 0.6 10192175
18:00+14з344898 0.1 1020854
21:00+11з236173 0.1 1021249